COSMOS 2084 (20663 NORAD) Tracking and Keplerian Element Data

This shows tracking and keplerian element data for the satellite.

Feedback or suggestion? Click here.




ElementValue
Catalog20663
NameCOSMOS 2084
Epoch Orbit87632
Epoch Day34.82260243
Epoch Year2025
RAAN252.7622
Inclination62.7895
Eccentricity0.008181
Argument of Perigee141.5553
Mean Anonmoly219.1414
Mean Motion15.02196698
Decay Rate6.004E-05
L11 20663U 90055A 25034.82260243 .00006004 00000+0 43671-3 0 9990
L22 20663 62.7895 252.7622 0081810 141.5553 219.1414 15.02196698876329



Live tracking and technical data element details for COSMOS 2084 (NORAD 20663). COSMOS 2084 can be tracked NOW for your location showing map with azimuth and elevation plus other details from your city location.







IsCatalogInMostPopularTable: catalog: 20663, numindb: 621
Update: records affected: 1



GetName: 20663 COSMOS 2084

Hit Count: updated at: Wed, 30 Apr 2025 17:10:20 GMT